Monroe, LA

6:49 AM CDT on July 28, 2016 (GMT -0500)
Monroe Regional

Weather History for KMLU - June, 2015

Change the Weather History Date:

Sunday, June 28, 2015

  Actual Average Record
Temperature  
Mean Temperature 79 °F 82 °F  
Max Temperature 89 °F 93 °F 102 °F (1988)
Min Temperature 69 °F 71 °F 60 °F (2006)
Degree Days  
Heating Degree Days 0 0  
Month to date heating degree days 0 0  
Since 1 June heating degree days 0 0  
Since 1 July heating degree days 2515 2230  
Cooling Degree Days 14 17  
Month to date cooling degree days 440 431  
Year to date cooling degree days 862 866  
Since 1 June cooling degree days 440 431  
Growing Degree Days 29 (Base 50)    
Moisture  
Dew Point 69 °F    
Average Humidity 72    
Maximum Humidity 97    
Minimum Humidity 46    
Precipitation  
Precipitation 0.00 in 0.16 in 2.20 in (1976)
Month to date precipitation 3.45 4.37  
Year to date precipitation 29.93 28.42  
Snow  
Snow 0.00 in - - ()
Month to date snowfall 0.0  
Since 1 June snowfall 0.0  
Since 1 July snowfall 3.9  
Snow Depth 0.00 in    
Sea Level Pressure  
Sea Level Pressure 30.00 in    
Wind  
Wind Speed 2 mph (ENE)    
Max Wind Speed 7 mph    
Max Gust Speed 15 mph    
Visibility 10 miles    
Events      
T = Trace of Precipitation, MM = Missing Value Source: NWS Daily Summary

Daily Weather History Graph

Daily Weather History Graph

Search for Another Location

Airport or City:

Trip Planner

Search our weather history database for the weather conditions in past years. The results will help you decide how hot, cold, wet, or windy it might be!

Date:

Astronomy

Jun. 28, 2015 Rise Set
Actual Time 6:03 AM CDT 8:19 PM CDT
Civil Twilight 5:34 AM CDT 8:47 PM CDT
Nautical Twilight 4:59 AM CDT 9:22 PM CDT
Astronomical Twilight 4:22 AM CDT 10:00 PM CDT
Moon 5:06 PM CDT 3:18 AM CDT
Length of Visible Light 15h 13m
Length of Day
14h 16m
Waxing Gibbous, 87% of the Moon is Illuminated
Jun 28
Waxing Gibbous
Jul 1
Full
Jul 8
Last Quarter
Jul 15
New
Jul 23
First Quarter

Hourly Weather History & Observations

Time (CDT) Temp. Heat Index Dew Point Humidity Pressure Visibility Wind Dir Wind Speed Gust Speed Precip Events Conditions
12:53 AM 73.9 °F - 72.0 °F 93% 30.01 in 10.0 mi Calm Calm - N/A   Partly Cloudy
1:53 AM 75.0 °F - 72.0 °F 90% 30.00 in 10.0 mi Calm Calm - N/A   Overcast
2:53 AM 73.0 °F - 70.0 °F 90% 29.99 in 10.0 mi NNE 3.5 mph - N/A   Clear
3:53 AM 72.0 °F - 69.1 °F 91% 29.99 in 10.0 mi Calm Calm - N/A   Clear
4:53 AM 70.0 °F - 68.0 °F 93% 29.99 in 10.0 mi Calm Calm - N/A   Clear
5:53 AM 70.0 °F - 68.0 °F 93% 30.01 in 10.0 mi NNE 4.6 mph - N/A   Clear
6:53 AM 71.1 °F - 69.1 °F 93% 30.02 in 10.0 mi Calm Calm - N/A   Clear
7:53 AM 75.9 °F - 70.0 °F 82% 30.03 in 10.0 mi NE 4.6 mph - N/A   Clear
8:53 AM 79.0 °F - 69.1 °F 72% 30.05 in 10.0 mi ESE 4.6 mph - N/A   Clear
9:53 AM 82.0 °F 85.9 °F 70.0 °F 67% 30.05 in 10.0 mi ENE 4.6 mph - N/A   Clear
10:53 AM 82.9 °F 85.0 °F 66.0 °F 56% 30.06 in 10.0 mi Calm Calm - N/A   Clear
11:53 AM 84.9 °F 87.6 °F 66.9 °F 55% 30.05 in 10.0 mi ENE 5.8 mph - N/A   Scattered Clouds
12:53 PM 86.0 °F 88.2 °F 66.0 °F 51% 30.03 in 10.0 mi Calm Calm - N/A   Clear
1:53 PM 84.9 °F 87.1 °F 66.0 °F 53% 30.03 in 10.0 mi ESE 3.5 mph - N/A   Mostly Cloudy
2:53 PM 86.0 °F 87.6 °F 64.9 °F 49% 30.01 in 10.0 mi Variable 3.5 mph - N/A   Mostly Cloudy
3:53 PM 88.0 °F 89.6 °F 64.9 °F 46% 29.98 in 10.0 mi North - - N/A   Clear
4:53 PM 86.0 °F 88.8 °F 66.9 °F 53% 29.97 in 10.0 mi Calm Calm - N/A   Scattered Clouds
5:53 PM 88.0 °F 90.7 °F 66.9 °F 49% 29.97 in 10.0 mi Calm Calm - N/A   Mostly Cloudy
6:53 PM 88.0 °F 90.7 °F 66.9 °F 49% 29.96 in 10.0 mi East 3.5 mph - N/A   Mostly Cloudy
7:53 PM 84.0 °F 89.6 °F 72.0 °F 67% 29.96 in 10.0 mi Calm Calm - N/A   Partly Cloudy
8:53 PM 75.9 °F - 72.0 °F 87% 29.97 in 10.0 mi Calm Calm - N/A   Clear
9:53 PM 73.9 °F - 71.1 °F 91% 29.97 in 10.0 mi Calm Calm - N/A   Clear
10:53 PM 73.0 °F - 70.0 °F 90% 29.98 in 10.0 mi Calm Calm - N/A   Clear
11:53 PM 71.1 °F - 69.1 °F 93% 29.97 in 10.0 mi Calm Calm - N/A   Clear